Time,TemperatureF,DewpointF,PressureIn,WindDirection,WindDirectionDegrees,WindSpeedMPH,WindSpeedGustMPH,Humidity,HourlyPrecipIn,Conditions,Clouds,dailyrainin,SoftwareType,DateUTC
2013-04-17 00:22:00,51.0,-99.9,-100.00,NNW,345,21.0,-999.0,-999,-99.99,,,-99.99,,2013-04-17 07:22:00,
2013-04-17 00:32:00,51.0,-99.9,-100.00,NNW,345,21.0,-999.0,-999,-99.99,,,-99.99,,2013-04-17 07:32:00,
2013-04-17 00:42:00,51.0,-99.9,-100.00,NNW,345,21.0,-999.0,-999,-99.99,,,-99.99,,2013-04-17 07:42:00,
2013-04-17 00:52:00,51.0,-99.9,-100.00,NNW,345,21.0,-999.0,-999,-99.99,,,-99.99,,2013-04-17 07:52:00,
2013-04-17 01:22:00,50.0,-99.9,-100.00,NNW,343,21.0,-999.0,-999,-99.99,,,-99.99,,2013-04-17 08:22:00,
2013-04-17 01:33:00,50.0,-99.9,-100.00,NNW,343,21.0,-999.0,-999,-99.99,,,-99.99,,2013-04-17 08:33:00,
2013-04-17 01:42:00,50.0,-99.9,-100.00,NNW,343,21.0,-999.0,-999,-99.99,,,-99.99,,2013-04-17 08:42:00,
2013-04-17 01:52:00,50.0,-99.9,-100.00,NNW,343,21.0,-999.0,-999,-99.99,,,-99.99,,2013-04-17 08:52:00,
2013-04-17 02:22:00,50.0,-99.9,-100.00,NNW,344,21.0,-999.0,-999,-99.99,,,-99.99,,2013-04-17 09:22:00,
2013-04-17 02:33:00,50.0,-99.9,-100.00,NNW,344,21.0,-999.0,-999,-99.99,,,-99.99,,2013-04-17 09:33:00,
2013-04-17 02:43:00,50.0,-99.9,-100.00,NNW,344,21.0,-999.0,-999,-99.99,,,-99.99,,2013-04-17 09:43:00,
2013-04-17 02:53:00,50.0,-99.9,-100.00,NNW,344,21.0,-999.0,-999,-99.99,,,-99.99,,2013-04-17 09:53:00,
2013-04-17 03:23:00,50.0,-99.9,-100.00,NNW,343,20.0,-999.0,-999,-99.99,,,-99.99,,2013-04-17 10:23:00,
2013-04-17 03:33:00,50.0,-99.9,-100.00,NNW,343,20.0,-999.0,-999,-99.99,,,-99.99,,2013-04-17 10:33:00,
2013-04-17 03:43:00,50.0,-99.9,-100.00,NNW,343,20.0,-999.0,-999,-99.99,,,-99.99,,2013-04-17 10:43:00,
2013-04-17 03:53:00,50.0,-99.9,-100.00,NNW,343,20.0,-999.0,-999,-99.99,,,-99.99,,2013-04-17 10:53:00,
2013-04-17 04:22:00,50.0,-99.9,-100.00,NNW,345,21.0,-999.0,-999,-99.99,,,-99.99,,2013-04-17 11:22:00,
2013-04-17 04:32:00,50.0,-99.9,-100.00,NNW,345,21.0,-999.0,-999,-99.99,,,-99.99,,2013-04-17 11:32:00,
2013-04-17 04:42:00,50.0,-99.9,-100.00,NNW,345,21.0,-999.0,-999,-99.99,,,-99.99,,2013-04-17 11:42:00,
2013-04-17 04:52:00,50.0,-99.9,-100.00,NNW,345,21.0,-999.0,-999,-99.99,,,-99.99,,2013-04-17 11:52:00,
2013-04-17 05:22:00,51.0,-99.9,-100.00,NNW,346,22.0,-999.0,-999,-99.99,,,-99.99,,2013-04-17 12:22:00,
2013-04-17 05:32:00,51.0,-99.9,-100.00,NNW,346,22.0,-999.0,-999,-99.99,,,-99.99,,2013-04-17 12:32:00,
2013-04-17 05:42:00,51.0,-99.9,-100.00,NNW,346,22.0,-999.0,-999,-99.99,,,-99.99,,2013-04-17 12:42:00,
2013-04-17 05:52:00,51.0,-99.9,-100.00,NNW,346,22.0,-999.0,-999,-99.99,,,-99.99,,2013-04-17 12:52:00,
2013-04-17 06:22:00,51.0,-99.9,-100.00,NNW,339,23.0,-999.0,-999,-99.99,,,-99.99,,2013-04-17 13:22:00,
2013-04-17 06:32:00,51.0,-99.9,-100.00,NNW,339,23.0,-999.0,-999,-99.99,,,-99.99,,2013-04-17 13:32:00,
2013-04-17 06:42:00,51.0,-99.9,-100.00,NNW,339,23.0,-999.0,-999,-99.99,,,-99.99,,2013-04-17 13:42:00,
2013-04-17 06:52:00,51.0,-99.9,-100.00,NNW,339,23.0,-999.0,-999,-99.99,,,-99.99,,2013-04-17 13:52:00,
2013-04-17 07:32:00,51.0,-99.9,-100.00,NNW,342,21.0,-999.0,-999,-99.99,,,-99.99,,2013-04-17 14:32:00,
2013-04-17 07:43:00,51.0,-99.9,-100.00,NNW,342,21.0,-999.0,-999,-99.99,,,-99.99,,2013-04-17 14:43:00,
2013-04-17 07:52:00,51.0,-99.9,-100.00,NNW,342,21.0,-999.0,-999,-99.99,,,-99.99,,2013-04-17 14:52:00,
2013-04-17 08:22:00,51.0,-99.9,-100.00,NNW,345,26.0,-999.0,-999,-99.99,,,-99.99,,2013-04-17 15:22:00,
2013-04-17 08:33:00,51.0,-99.9,-100.00,NNW,345,26.0,-999.0,-999,-99.99,,,-99.99,,2013-04-17 15:33:00,
2013-04-17 08:43:00,51.0,-99.9,-100.00,NNW,345,26.0,-999.0,-999,-99.99,,,-99.99,,2013-04-17 15:43:00,
2013-04-17 08:53:00,51.0,-99.9,-100.00,NNW,345,26.0,-999.0,-999,-99.99,,,-99.99,,2013-04-17 15:53:00,
2013-04-17 09:23:00,53.0,-99.9,-100.00,NNW,338,21.0,-999.0,-999,-99.99,,,-99.99,,2013-04-17 16:23:00,
2013-04-17 09:32:00,53.0,-99.9,-100.00,NNW,338,21.0,-999.0,-999,-99.99,,,-99.99,,2013-04-17 16:32:00,
2013-04-17 09:42:00,53.0,-99.9,-100.00,NNW,338,21.0,-999.0,-999,-99.99,,,-99.99,,2013-04-17 16:42:00,
2013-04-17 09:52:00,53.0,-99.9,-100.00,NNW,338,21.0,-999.0,-999,-99.99,,,-99.99,,2013-04-17 16:52:00,
2013-04-17 10:23:00,57.0,-99.9,-100.00,NNW,332,17.0,-999.0,-999,-99.99,,,-99.99,,2013-04-17 17:23:00,
2013-04-17 10:33:00,57.0,-99.9,-100.00,NNW,332,17.0,-999.0,-999,-99.99,,,-99.99,,2013-04-17 17:33:00,
2013-04-17 10:42:00,57.0,-99.9,-100.00,NNW,332,17.0,-999.0,-999,-99.99,,,-99.99,,2013-04-17 17:42:00,
2013-04-17 10:52:00,57.0,-99.9,-100.00,NNW,332,17.0,-999.0,-999,-99.99,,,-99.99,,2013-04-17 17:52:00,
2013-04-17 11:22:00,60.0,-99.9,-100.00,NNW,347,13.0,-999.0,-999,-99.99,,,-99.99,,2013-04-17 18:22:00,
2013-04-17 11:33:00,60.0,-99.9,-100.00,NNW,347,13.0,-999.0,-999,-99.99,,,-99.99,,2013-04-17 18:33:00,
2013-04-17 11:42:00,60.0,-99.9,-100.00,NNW,347,13.0,-999.0,-999,-99.99,,,-99.99,,2013-04-17 18:42:00,
2013-04-17 11:53:00,60.0,-99.9,-100.00,NNW,347,13.0,-999.0,-999,-99.99,,,-99.99,,2013-04-17 18:53:00,
2013-04-17 12:22:00,64.0,-99.9,-100.00,WNW,302,14.0,-999.0,-999,-99.99,,,-99.99,,2013-04-17 19:22:00,
2013-04-17 12:32:00,64.0,-99.9,-100.00,WNW,302,14.0,-999.0,-999,-99.99,,,-99.99,,2013-04-17 19:32:00,
2013-04-17 12:42:00,64.0,-99.9,-100.00,WNW,302,14.0,-999.0,-999,-99.99,,,-99.99,,2013-04-17 19:42:00,
2013-04-17 12:52:00,64.0,-99.9,-100.00,WNW,302,14.0,-999.0,-999,-99.99,,,-99.99,,2013-04-17 19:52:00,
2013-04-17 13:22:00,67.0,-99.9,-100.00,NNW,341,15.0,-999.0,-999,-99.99,,,-99.99,,2013-04-17 20:22:00,
2013-04-17 13:33:00,67.0,-99.9,-100.00,NNW,341,15.0,-999.0,-999,-99.99,,,-99.99,,2013-04-17 20:33:00,
2013-04-17 13:42:00,67.0,-99.9,-100.00,NNW,341,15.0,-999.0,-999,-99.99,,,-99.99,,2013-04-17 20:42:00,
2013-04-17 13:53:00,67.0,-99.9,-100.00,NNW,341,15.0,-999.0,-999,-99.99,,,-99.99,,2013-04-17 20:53:00,
2013-04-17 14:22:00,70.0,-99.9,-100.00,NNW,329,20.0,-999.0,-999,-99.99,,,-99.99,,2013-04-17 21:22:00,
2013-04-17 14:33:00,70.0,-99.9,-100.00,NNW,329,20.0,-999.0,-999,-99.99,,,-99.99,,2013-04-17 21:33:00,
2013-04-17 14:43:00,70.0,-99.9,-100.00,NNW,329,20.0,-999.0,-999,-99.99,,,-99.99,,2013-04-17 21:43:00,
2013-04-17 14:53:00,70.0,-99.9,-100.00,NNW,329,20.0,-999.0,-999,-99.99,,,-99.99,,2013-04-17 21:53:00,
2013-04-17 15:23:00,71.0,-99.9,-100.00,NW,312,28.0,-999.0,-999,-99.99,,,-99.99,,2013-04-17 22:23:00,
2013-04-17 15:33:00,71.0,-99.9,-100.00,NW,312,28.0,-999.0,-999,-99.99,,,-99.99,,2013-04-17 22:33:00,
2013-04-17 15:43:00,71.0,-99.9,-100.00,NW,312,28.0,-999.0,-999,-99.99,,,-99.99,,2013-04-17 22:43:00,
2013-04-17 15:53:00,71.0,-99.9,-100.00,NW,312,28.0,-999.0,-999,-99.99,,,-99.99,,2013-04-17 22:53:00,
2013-04-17 16:22:00,71.0,-99.9,-100.00,NNW,339,18.0,-999.0,-999,-99.99,,,-99.99,,2013-04-17 23:22:00,
2013-04-17 16:32:00,71.0,-99.9,-100.00,NNW,339,18.0,-999.0,-999,-99.99,,,-99.99,,2013-04-17 23:32:00,
2013-04-17 16:42:00,71.0,-99.9,-100.00,NNW,339,18.0,-999.0,-999,-99.99,,,-99.99,,2013-04-17 23:42:00,
2013-04-17 16:52:00,71.0,-99.9,-100.00,NNW,339,18.0,-999.0,-999,-99.99,,,-99.99,,2013-04-17 23:52:00,
2013-04-17 17:22:00,68.0,-99.9,-100.00,WNW,287,21.0,-999.0,-999,-99.99,,,-99.99,,2013-04-18 00:22:00,
2013-04-17 17:32:00,68.0,-99.9,-100.00,WNW,287,21.0,-999.0,-999,-99.99,,,-99.99,,2013-04-18 00:32:00,
2013-04-17 17:43:00,68.0,-99.9,-100.00,WNW,287,21.0,-999.0,-999,-99.99,,,-99.99,,2013-04-18 00:43:00,
2013-04-17 17:52:00,68.0,-99.9,-100.00,WNW,287,21.0,-999.0,-999,-99.99,,,-99.99,,2013-04-18 00:52:00,
2013-04-17 18:22:00,64.0,-99.9,-100.00,WNW,284,15.0,-999.0,-999,-99.99,,,-99.99,,2013-04-18 01:22:00,
2013-04-17 18:32:00,64.0,-99.9,-100.00,WNW,284,15.0,-999.0,-999,-99.99,,,-99.99,,2013-04-18 01:32:00,
2013-04-17 18:42:00,64.0,-99.9,-100.00,WNW,284,15.0,-999.0,-999,-99.99,,,-99.99,,2013-04-18 01:42:00,
2013-04-17 18:52:00,64.0,-99.9,-100.00,WNW,284,15.0,-999.0,-999,-99.99,,,-99.99,,2013-04-18 01:52:00,
2013-04-17 19:22:00,61.0,-99.9,-100.00,WNW,294,12.0,-999.0,-999,-99.99,,,-99.99,,2013-04-18 02:22:00,
2013-04-17 19:32:00,61.0,-99.9,-100.00,WNW,294,12.0,-999.0,-999,-99.99,,,-99.99,,2013-04-18 02:32:00,
2013-04-17 19:42:00,61.0,-99.9,-100.00,WNW,294,12.0,-999.0,-999,-99.99,,,-99.99,,2013-04-18 02:42:00,
2013-04-17 19:52:00,61.0,-99.9,-100.00,WNW,294,12.0,-999.0,-999,-99.99,,,-99.99,,2013-04-18 02:52:00,
2013-04-17 20:22:00,58.0,-99.9,-100.00,WNW,285,1.0,-999.0,-999,-99.99,,,-99.99,,2013-04-18 03:22:00,
2013-04-17 20:34:00,58.0,-99.9,-100.00,WNW,285,1.0,-999.0,-999,-99.99,,,-99.99,,2013-04-18 03:34:00,
2013-04-17 20:43:00,58.0,-99.9,-100.00,WNW,285,1.0,-999.0,-999,-99.99,,,-99.99,,2013-04-18 03:43:00,
2013-04-17 20:53:00,58.0,-99.9,-100.00,WNW,285,1.0,-999.0,-999,-99.99,,,-99.99,,2013-04-18 03:53:00,
2013-04-17 21:23:00,56.0,-99.9,-100.00,NW,326,17.0,-999.0,-999,-99.99,,,-99.99,,2013-04-18 04:23:00,
2013-04-17 21:33:00,56.0,-99.9,-100.00,NW,326,17.0,-999.0,-999,-99.99,,,-99.99,,2013-04-18 04:33:00,
2013-04-17 21:43:00,56.0,-99.9,-100.00,NW,326,17.0,-999.0,-999,-99.99,,,-99.99,,2013-04-18 04:43:00,
2013-04-17 21:53:00,56.0,-99.9,-100.00,NW,326,17.0,-999.0,-999,-99.99,,,-99.99,,2013-04-18 04:53:00,
2013-04-17 22:22:00,58.0,-99.9,-100.00,NNW,332,5.0,-999.0,-999,-99.99,,,-99.99,,2013-04-18 05:22:00,
2013-04-17 22:33:00,58.0,-99.9,-100.00,NNW,332,5.0,-999.0,-999,-99.99,,,-99.99,,2013-04-18 05:33:00,
2013-04-17 22:42:00,58.0,-99.9,-100.00,NNW,332,5.0,-999.0,-999,-99.99,,,-99.99,,2013-04-18 05:42:00,
2013-04-17 22:52:00,58.0,-99.9,-100.00,NNW,332,5.0,-999.0,-999,-99.99,,,-99.99,,2013-04-18 05:52:00,
2013-04-17 23:22:00,59.0,-99.9,-100.00,NNW,331,4.0,-999.0,-999,-99.99,,,-99.99,,2013-04-18 06:22:00,
2013-04-17 23:32:00,59.0,-99.9,-100.00,NNW,331,4.0,-999.0,-999,-99.99,,,-99.99,,2013-04-18 06:32:00,
2013-04-17 23:52:00,59.0,-99.9,-100.00,NNW,331,4.0,-999.0,-999,-99.99,,,-99.99,,2013-04-18 06:52:00,